Time,TemperatureF,DewpointF,PressureIn,WindDirection,WindDirectionDegrees,WindSpeedMPH,WindSpeedGustMPH,Humidity,HourlyPrecipIn,Conditions,Clouds,dailyrainin,SoftwareType,DateUTC
2013-01-28 00:00:00,27.0,15.4,30.42,NNW,340,0.0,0.0,61,0.00,,FEW250,0.00,VWS V14.01,2013-01-28 05:00:00,
2013-01-28 00:02:00,27.1,15.4,30.42,NNW,340,0.0,0.0,61,0.00,,FEW250,0.00,VWS V14.01,2013-01-28 05:02:00,
2013-01-28 00:07:00,27.0,15.4,30.42,NNW,340,0.0,0.0,61,0.00,,FEW250,0.00,VWS V14.01,2013-01-28 05:07:00,
2013-01-28 00:12:00,26.7,15.4,30.42,NNW,340,0.0,0.0,62,0.00,,FEW250,0.00,VWS V14.01,2013-01-28 05:12:00,
2013-01-28 00:17:00,26.6,15.4,30.43,NNW,340,0.0,0.0,62,0.00,,FEW250,0.00,VWS V14.01,2013-01-28 05:17:00,
2013-01-28 00:22:00,26.8,15.5,30.42,NNW,340,0.0,0.0,62,0.00,,FEW250,0.00,VWS V14.01,2013-01-28 05:22:00,
2013-01-28 00:27:00,26.6,15.4,30.42,NNW,340,0.0,0.0,62,0.00,,FEW250,0.00,VWS V14.01,2013-01-28 05:27:00,
2013-01-28 00:32:00,26.5,15.6,30.42,NNW,340,0.0,0.0,63,0.00,,FEW250,0.00,VWS V14.01,2013-01-28 05:32:00,
2013-01-28 00:37:00,26.5,15.7,30.42,NNW,340,0.0,0.0,63,0.00,,FEW250,0.00,VWS V14.01,2013-01-28 05:37:00,
2013-01-28 00:42:00,26.5,15.6,30.42,NNW,340,0.0,0.0,63,0.00,,FEW250,0.00,VWS V14.01,2013-01-28 05:42:00,
2013-01-28 00:47:00,26.3,15.8,30.42,NNW,340,0.0,0.0,64,0.00,,FEW250,0.00,VWS V14.01,2013-01-28 05:47:00,
2013-01-28 00:52:00,26.4,15.9,30.41,NNW,340,0.0,0.0,64,0.00,,FEW250,0.00,VWS V14.01,2013-01-28 05:52:00,
2013-01-28 00:57:00,26.5,16.0,30.42,NNW,340,0.0,0.0,64,0.00,,FEW250,0.00,VWS V14.01,2013-01-28 05:57:00,
2013-01-28 01:02:00,26.7,16.5,30.42,NNW,340,0.0,0.0,65,0.00,,SCT230,0.00,VWS V14.01,2013-01-28 06:02:00,
2013-01-28 01:07:00,26.7,16.5,30.42,NNW,340,0.0,0.0,65,0.00,,SCT230,0.00,VWS V14.01,2013-01-28 06:07:00,
2013-01-28 01:12:00,26.6,16.4,30.42,NNW,340,0.0,0.0,65,0.00,,SCT230,0.00,VWS V14.01,2013-01-28 06:12:00,
2013-01-28 01:17:00,26.4,16.3,30.42,NNW,340,0.0,0.0,65,0.00,,SCT230,0.00,VWS V14.01,2013-01-28 06:17:00,
2013-01-28 01:22:00,26.7,16.5,30.42,NNW,340,0.0,0.0,65,0.00,,SCT230,0.00,VWS V14.01,2013-01-28 06:22:00,
2013-01-28 01:27:00,27.0,17.2,30.42,NNW,340,0.0,0.0,66,0.00,,SCT230,0.00,VWS V14.01,2013-01-28 06:27:00,
2013-01-28 01:32:00,27.2,17.4,30.42,NNW,340,0.0,0.0,66,0.00,,SCT230,0.00,VWS V14.01,2013-01-28 06:32:00,
2013-01-28 01:37:00,27.3,17.5,30.42,NNW,340,0.0,0.0,66,0.00,,SCT230,0.00,VWS V14.01,2013-01-28 06:37:00,
2013-01-28 01:42:00,27.4,17.2,30.42,NNW,340,0.0,0.0,65,0.00,,SCT230,0.00,VWS V14.01,2013-01-28 06:42:00,
2013-01-28 01:47:00,27.4,17.2,30.42,NNW,340,0.0,0.0,65,0.00,,SCT230,0.00,VWS V14.01,2013-01-28 06:47:00,
2013-01-28 01:52:00,27.5,17.6,30.42,NNW,340,0.0,0.0,66,0.00,,SCT230,0.00,VWS V14.01,2013-01-28 06:52:00,
2013-01-28 01:57:00,27.6,17.7,30.41,NNW,340,0.0,0.0,66,0.00,,SCT230,0.00,VWS V14.01,2013-01-28 06:57:00,
2013-01-28 02:02:00,27.6,17.7,30.41,NNW,340,0.0,0.0,66,0.00,,OVC190,0.00,VWS V14.01,2013-01-28 07:02:00,
2013-01-28 02:07:00,27.5,17.6,30.41,NNW,340,0.0,0.0,66,0.00,,OVC190,0.00,VWS V14.01,2013-01-28 07:07:00,
2013-01-28 02:12:00,27.6,17.7,30.41,NNW,340,0.0,0.0,66,0.00,,OVC190,0.00,VWS V14.01,2013-01-28 07:12:00,
2013-01-28 02:17:00,27.7,17.8,30.40,NNW,340,0.0,0.0,66,0.00,,OVC190,0.00,VWS V14.01,2013-01-28 07:17:00,
2013-01-28 02:22:00,27.6,17.7,30.40,NNW,340,0.0,0.0,66,0.00,,OVC190,0.00,VWS V14.01,2013-01-28 07:22:00,
2013-01-28 02:27:00,27.7,18.2,30.40,NNW,340,0.0,0.0,67,0.00,,OVC190,0.00,VWS V14.01,2013-01-28 07:27:00,
2013-01-28 02:32:00,27.7,18.2,30.40,NNW,340,0.0,0.0,67,0.00,,OVC190,0.00,VWS V14.01,2013-01-28 07:32:00,
2013-01-28 02:37:00,27.6,17.7,30.39,NNW,340,0.0,0.0,66,0.00,,OVC190,0.00,VWS V14.01,2013-01-28 07:37:00,
2013-01-28 02:42:00,27.5,18.0,30.39,NNW,340,0.0,0.0,67,0.00,,OVC190,0.00,VWS V14.01,2013-01-28 07:42:00,
2013-01-28 02:47:00,27.4,17.5,30.39,NNW,340,0.0,0.0,66,0.00,,OVC190,0.00,VWS V14.01,2013-01-28 07:47:00,
2013-01-28 02:53:00,27.3,17.8,30.39,NNW,340,0.0,0.0,67,0.00,,OVC190,0.00,VWS V14.01,2013-01-28 07:53:00,
2013-01-28 02:58:00,27.2,17.4,30.39,NNW,340,0.0,0.0,66,0.00,,OVC190,0.00,VWS V14.01,2013-01-28 07:58:00,
2013-01-28 03:03:00,27.1,17.3,30.38,NNW,340,0.0,0.0,66,0.00,,BKN230,0.00,VWS V14.01,2013-01-28 08:03:00,
2013-01-28 03:08:00,27.1,17.6,30.38,NNW,340,0.0,0.0,67,0.00,,BKN230,0.00,VWS V14.01,2013-01-28 08:08:00,
2013-01-28 03:13:00,27.2,17.7,30.38,NNW,340,0.0,0.0,67,0.00,,BKN230,0.00,VWS V14.01,2013-01-28 08:13:00,
2013-01-28 03:18:00,27.0,17.6,30.38,NNW,340,0.0,0.0,67,0.00,,BKN230,0.00,VWS V14.01,2013-01-28 08:18:00,
2013-01-28 03:23:00,27.0,17.5,30.38,NNW,340,0.0,0.0,67,0.00,,BKN230,0.00,VWS V14.01,2013-01-28 08:23:00,
2013-01-28 03:28:00,27.0,17.5,30.38,NNW,340,0.0,0.0,67,0.00,,BKN230,0.00,VWS V14.01,2013-01-28 08:28:00,
2013-01-28 03:33:00,26.9,17.8,30.38,NNW,340,0.0,0.0,68,0.00,,BKN230,0.00,VWS V14.01,2013-01-28 08:33:00,
2013-01-28 03:38:00,26.6,17.5,30.39,NNW,340,0.0,0.0,68,0.00,,BKN230,0.00,VWS V14.01,2013-01-28 08:38:00,
2013-01-28 03:43:00,26.7,17.9,30.39,NNW,340,0.0,0.0,69,0.00,,BKN230,0.00,VWS V14.01,2013-01-28 08:43:00,
2013-01-28 03:48:00,26.8,18.0,30.39,NNW,340,0.0,0.0,69,0.00,,BKN230,0.00,VWS V14.01,2013-01-28 08:48:00,
2013-01-28 03:53:00,27.0,18.2,30.39,NNW,340,0.0,0.0,69,0.00,,BKN230,0.00,VWS V14.01,2013-01-28 08:53:00,
2013-01-28 03:58:00,27.3,18.1,30.38,NNW,340,0.0,0.0,68,0.00,,BKN230,0.00,VWS V14.01,2013-01-28 08:58:00,
2013-01-28 04:03:00,27.4,18.6,30.38,NNW,340,0.0,0.0,69,0.00,,BKN230,0.00,VWS V14.01,2013-01-28 09:03:00,
2013-01-28 04:08:00,27.5,18.7,30.38,NNW,340,0.0,0.0,69,0.00,,BKN230,0.00,VWS V14.01,2013-01-28 09:08:00,
2013-01-28 04:13:00,27.6,18.8,30.37,NNW,340,0.0,0.0,69,0.00,,BKN230,0.00,VWS V14.01,2013-01-28 09:13:00,
2013-01-28 04:18:00,27.6,18.9,30.37,NNW,340,0.0,0.0,69,0.00,,BKN230,0.00,VWS V14.01,2013-01-28 09:18:00,
2013-01-28 04:23:00,27.7,18.9,30.36,NNW,340,0.0,0.0,69,0.00,,BKN230,0.00,VWS V14.01,2013-01-28 09:23:00,
2013-01-28 04:28:00,27.7,18.9,30.37,NNW,340,0.0,0.0,69,0.00,,BKN230,0.00,VWS V14.01,2013-01-28 09:28:00,
2013-01-28 04:33:00,27.8,19.0,30.37,NNW,340,0.0,0.0,69,0.00,,BKN230,0.00,VWS V14.01,2013-01-28 09:33:00,
2013-01-28 04:38:00,27.8,19.0,30.37,NNW,340,0.0,0.0,69,0.00,,BKN230,0.00,VWS V14.01,2013-01-28 09:38:00,
2013-01-28 04:43:00,27.9,19.4,30.37,NNW,340,0.0,0.0,70,0.00,,BKN230,0.00,VWS V14.01,2013-01-28 09:43:00,
2013-01-28 04:48:00,27.9,19.1,30.36,NNW,340,0.0,0.0,69,0.00,,BKN230,0.00,VWS V14.01,2013-01-28 09:48:00,
2013-01-28 04:53:00,28.0,19.5,30.36,NNW,340,0.0,0.0,70,0.00,,BKN230,0.00,VWS V14.01,2013-01-28 09:53:00,
2013-01-28 04:58:00,28.0,19.5,30.36,NNW,340,0.0,0.0,70,0.00,,BKN230,0.00,VWS V14.01,2013-01-28 09:58:00,
2013-01-28 05:03:00,28.0,19.2,30.36,NNW,340,0.0,0.0,69,0.00,,OVC230,0.00,VWS V14.01,2013-01-28 10:03:00,
2013-01-28 05:08:00,28.0,19.5,30.35,NNW,340,0.0,0.0,70,0.00,,OVC230,0.00,VWS V14.01,2013-01-28 10:08:00,
2013-01-28 05:13:00,28.0,19.5,30.35,NNW,340,0.0,0.0,70,0.00,,OVC230,0.00,VWS V14.01,2013-01-28 10:13:00,
2013-01-28 05:18:00,28.1,19.6,30.35,NNW,340,0.0,0.0,70,0.00,,OVC230,0.00,VWS V14.01,2013-01-28 10:18:00,
2013-01-28 05:23:00,28.1,19.6,30.35,NNW,340,0.0,0.0,70,0.00,,OVC230,0.00,VWS V14.01,2013-01-28 10:23:00,
2013-01-28 05:28:00,28.2,19.7,30.35,NNW,340,0.0,0.0,70,0.00,,OVC230,0.00,VWS V14.01,2013-01-28 10:28:00,
2013-01-28 05:33:00,28.3,19.8,30.35,NNW,340,0.0,0.0,70,0.00,,OVC230,0.00,VWS V14.01,2013-01-28 10:33:00,
2013-01-28 05:38:00,28.3,19.8,30.34,NNW,340,0.0,0.0,70,0.00,,OVC230,0.00,VWS V14.01,2013-01-28 10:38:00,
2013-01-28 05:43:00,28.4,19.9,30.34,NNW,340,0.0,0.0,70,0.00,,OVC230,0.00,VWS V14.01,2013-01-28 10:43:00,
2013-01-28 05:48:00,28.5,20.0,30.34,NNW,340,0.0,0.0,70,0.00,,OVC230,0.00,VWS V14.01,2013-01-28 10:48:00,
2013-01-28 05:53:00,28.5,20.0,30.34,NNW,340,0.0,0.0,70,0.00,,OVC230,0.00,VWS V14.01,2013-01-28 10:53:00,
2013-01-28 05:58:00,28.6,20.1,30.34,NNW,340,0.0,0.0,70,0.00,,OVC230,0.00,VWS V14.01,2013-01-28 10:58:00,
2013-01-28 06:03:00,28.6,19.7,30.34,NNW,340,0.0,0.0,69,0.00,,OVC100,0.00,VWS V14.01,2013-01-28 11:03:00,
2013-01-28 06:08:00,28.7,19.8,30.34,NNW,340,0.0,0.0,69,0.00,,OVC100,0.00,VWS V14.01,2013-01-28 11:08:00,
2013-01-28 06:13:00,28.9,19.3,30.35,NNW,340,0.0,0.0,67,0.00,,OVC100,0.00,VWS V14.01,2013-01-28 11:13:00,
2013-01-28 06:18:00,29.0,18.8,30.34,NNW,340,1.0,1.0,65,0.00,,OVC100,0.00,VWS V14.01,2013-01-28 11:18:00,
2013-01-28 06:23:00,29.2,18.5,30.35,WNW,289,0.0,2.0,64,0.00,,OVC100,0.00,VWS V14.01,2013-01-28 11:23:00,
2013-01-28 06:28:00,29.3,18.6,30.35,WNW,289,0.0,2.0,64,0.00,,OVC100,0.00,VWS V14.01,2013-01-28 11:28:00,
2013-01-28 06:33:00,29.5,18.8,30.35,WNW,289,1.0,2.0,64,0.00,,OVC100,0.00,VWS V14.01,2013-01-28 11:33:00,
2013-01-28 06:38:00,29.5,18.8,30.35,WNW,290,0.0,2.0,64,0.00,,OVC100,0.00,VWS V14.01,2013-01-28 11:38:00,
2013-01-28 06:43:00,29.6,18.9,30.36,WNW,289,1.0,3.0,64,0.00,,OVC100,0.00,VWS V14.01,2013-01-28 11:43:00,
2013-01-28 06:48:00,29.7,19.0,30.35,West,281,3.0,3.0,64,0.00,,OVC100,0.00,VWS V14.01,2013-01-28 11:48:00,
2013-01-28 06:53:00,29.9,19.2,30.35,West,263,2.0,4.0,64,0.00,,OVC100,0.00,VWS V14.01,2013-01-28 11:53:00,
2013-01-28 06:58:00,30.0,19.7,30.35,WSW,256,2.0,5.0,65,0.00,,OVC100,0.00,VWS V14.01,2013-01-28 11:58:00,
2013-01-28 07:03:00,30.1,19.8,30.35,WSW,256,1.0,4.0,65,0.00,,OVC080,0.00,VWS V14.01,2013-01-28 12:03:00,
2013-01-28 07:08:00,30.2,19.9,30.35,WSW,256,0.0,4.0,65,0.00,,OVC080,0.00,VWS V14.01,2013-01-28 12:08:00,
2013-01-28 07:13:00,30.3,20.0,30.35,WSW,256,0.0,4.0,65,0.00,,OVC080,0.00,VWS V14.01,2013-01-28 12:13:00,
2013-01-28 07:18:00,30.4,20.1,30.34,WSW,256,2.0,4.0,65,0.00,,OVC080,0.00,VWS V14.01,2013-01-28 12:18:00,
2013-01-28 07:23:00,30.5,20.1,30.34,WSW,256,1.0,4.0,65,0.00,,OVC080,0.00,VWS V14.01,2013-01-28 12:23:00,
2013-01-28 07:28:00,30.5,19.8,30.34,WSW,256,0.0,4.0,64,0.00,,OVC080,0.00,VWS V14.01,2013-01-28 12:28:00,
2013-01-28 07:33:00,30.6,19.9,30.34,WSW,256,0.0,0.0,64,0.00,,OVC080,0.00,VWS V14.01,2013-01-28 12:33:00,
2013-01-28 07:38:00,30.7,20.0,30.33,WSW,256,0.0,0.0,64,0.00,,OVC080,0.00,VWS V14.01,2013-01-28 12:38:00,
2013-01-28 07:43:00,30.7,20.3,30.33,WSW,256,0.0,3.0,65,0.00,,OVC080,0.00,VWS V14.01,2013-01-28 12:43:00,
2013-01-28 07:48:00,30.8,20.1,30.35,WSW,256,3.0,4.0,64,0.00,,OVC080,0.00,VWS V14.01,2013-01-28 12:48:00,
2013-01-28 07:53:00,30.9,20.1,30.34,West,260,1.0,4.0,64,0.00,,OVC080,0.00,VWS V14.01,2013-01-28 12:53:00,
2013-01-28 07:58:00,30.9,20.2,30.34,WSW,253,5.0,6.0,64,0.00,,OVC080,0.00,VWS V14.01,2013-01-28 12:58:00,
2013-01-28 08:03:00,31.0,20.3,30.33,WSW,252,0.0,5.0,64,0.00,,OVC080,0.00,VWS V14.01,2013-01-28 13:03:00,
2013-01-28 08:08:00,31.1,20.4,30.34,SW,232,4.0,5.0,64,0.00,,OVC080,0.00,VWS V14.01,2013-01-28 13:08:00,
2013-01-28 08:13:00,31.1,20.4,30.34,WSW,250,0.0,5.0,64,0.00,,OVC080,0.00,VWS V14.01,2013-01-28 13:13:00,
2013-01-28 08:18:00,31.2,20.8,30.34,WSW,243,4.0,6.0,65,0.00,,OVC080,0.00,VWS V14.01,2013-01-28 13:18:00,
2013-01-28 08:23:00,31.3,20.9,30.34,WSW,251,6.0,8.0,65,0.00,,OVC080,0.00,VWS V14.01,2013-01-28 13:23:00,
2013-01-28 08:28:00,31.3,20.9,30.34,WSW,242,9.0,10.0,65,0.00,,OVC080,0.00,VWS V14.01,2013-01-28 13:28:00,
2013-01-28 08:33:00,31.5,20.7,30.35,WSW,248,4.0,9.0,64,0.00,,OVC080,0.00,VWS V14.01,2013-01-28 13:33:00,
2013-01-28 08:38:00,31.6,20.8,30.34,WSW,238,3.0,10.0,64,0.00,,OVC080,0.00,VWS V14.01,2013-01-28 13:38:00,
2013-01-28 08:43:00,31.7,20.9,30.35,SW,236,3.0,10.0,64,0.00,,OVC080,0.00,VWS V14.01,2013-01-28 13:43:00,
2013-01-28 08:48:00,31.7,20.9,30.34,West,270,3.0,10.0,64,0.00,,OVC080,0.00,VWS V14.01,2013-01-28 13:48:00,
2013-01-28 08:53:00,31.8,21.0,30.34,WSW,244,0.0,10.0,64,0.00,,OVC080,0.00,VWS V14.01,2013-01-28 13:53:00,
2013-01-28 08:58:00,31.8,21.0,30.33,WSW,258,4.0,10.0,64,0.00,,OVC080,0.00,VWS V14.01,2013-01-28 13:58:00,
2013-01-28 09:03:00,31.9,21.0,30.33,SW,231,4.0,5.0,64,0.00,,OVC100,0.00,VWS V14.01,2013-01-28 14:03:00,
2013-01-28 09:08:00,31.9,21.5,30.33,WSW,248,5.0,8.0,65,0.00,,OVC100,0.00,VWS V14.01,2013-01-28 14:08:00,
2013-01-28 09:13:00,32.0,21.6,30.34,WSW,242,3.0,9.0,65,0.00,,OVC100,0.00,VWS V14.01,2013-01-28 14:13:00,
2013-01-28 09:18:00,32.1,21.7,30.34,WSW,247,3.0,9.0,65,0.00,,OVC100,0.00,VWS V14.01,2013-01-28 14:18:00,
2013-01-28 09:23:00,32.2,21.4,30.34,WSW,247,4.0,9.0,64,0.00,,OVC100,0.00,VWS V14.01,2013-01-28 14:23:00,
2013-01-28 09:28:00,32.3,21.9,30.33,WSW,246,3.0,10.0,65,0.00,,OVC100,0.00,VWS V14.01,2013-01-28 14:28:00,
2013-01-28 09:33:00,32.4,22.0,30.33,WSW,251,2.0,10.0,65,0.00,,OVC100,0.00,VWS V14.01,2013-01-28 14:33:00,
2013-01-28 09:38:00,32.4,22.4,30.33,West,266,4.0,11.0,66,0.00,,OVC100,0.00,VWS V14.01,2013-01-28 14:38:00,
2013-01-28 09:43:00,32.5,23.1,30.32,WSW,241,4.0,11.0,68,0.00,,OVC100,0.00,VWS V14.01,2013-01-28 14:43:00,
2013-01-28 09:48:00,32.5,23.7,30.32,West,267,3.0,11.0,70,0.00,,OVC100,0.00,VWS V14.01,2013-01-28 14:48:00,
2013-01-28 09:53:00,32.2,24.2,30.32,WSW,240,9.0,13.0,72,0.00,,OVC100,0.00,VWS V14.01,2013-01-28 14:53:00,
2013-01-28 09:58:00,32.0,25.0,30.32,WSW,251,2.0,13.0,75,0.00,,OVC100,0.00,VWS V14.01,2013-01-28 14:58:00,
2013-01-28 10:03:00,31.7,25.0,30.32,WNW,292,2.0,9.0,76,0.00,,,0.00,VWS V14.01,2013-01-28 15:03:00,
2013-01-28 10:08:00,31.7,25.2,30.32,SW,236,4.0,9.0,77,0.00,,,0.00,VWS V14.01,2013-01-28 15:08:00,
2013-01-28 10:13:00,31.6,25.6,30.31,WSW,247,4.0,9.0,78,0.00,,,0.00,VWS V14.01,2013-01-28 15:13:00,
2013-01-28 10:18:00,31.6,25.9,30.32,WSW,251,5.0,9.0,79,0.00,,,0.00,VWS V14.01,2013-01-28 15:18:00,
2013-01-28 10:23:00,31.6,26.1,30.31,WSW,250,4.0,9.0,80,0.00,,,0.00,VWS V14.01,2013-01-28 15:23:00,
2013-01-28 10:28:00,31.5,26.4,30.31,WSW,242,4.0,9.0,81,0.00,,,0.00,VWS V14.01,2013-01-28 15:28:00,
2013-01-28 10:33:00,31.6,26.5,30.30,SW,225,3.0,7.0,81,0.00,,,0.00,VWS V14.01,2013-01-28 15:33:00,
2013-01-28 10:38:00,31.6,26.8,30.30,SW,217,5.0,8.0,82,0.00,,,0.00,VWS V14.01,2013-01-28 15:38:00,
2013-01-28 10:43:00,31.6,27.0,30.30,West,260,6.0,10.0,83,0.00,,,0.00,VWS V14.01,2013-01-28 15:43:00,
2013-01-28 10:48:00,31.5,27.2,30.30,West,261,5.0,10.0,84,0.00,,,0.00,VWS V14.01,2013-01-28 15:48:00,
2013-01-28 10:53:00,31.5,27.2,30.29,SSW,209,3.0,10.0,84,0.00,,,0.00,VWS V14.01,2013-01-28 15:53:00,
2013-01-28 10:58:00,31.6,27.6,30.28,WSW,256,4.0,10.0,85,0.00,,,0.00,VWS V14.01,2013-01-28 15:58:00,
2013-01-28 11:03:00,31.8,27.8,30.28,SW,221,6.0,8.0,85,0.00,,,0.00,VWS V14.01,2013-01-28 16:03:00,
2013-01-28 11:08:00,31.9,27.9,30.28,WSW,246,6.0,8.0,85,0.00,,,0.00,VWS V14.01,2013-01-28 16:08:00,
2013-01-28 11:13:00,31.9,27.9,30.27,WSW,251,7.0,9.0,85,0.00,,,0.00,VWS V14.01,2013-01-28 16:13:00,
2013-01-28 11:18:00,31.9,28.2,30.27,SW,231,9.0,9.0,86,0.00,,,0.00,VWS V14.01,2013-01-28 16:18:00,
2013-01-28 11:23:00,32.0,28.0,30.27,SW,217,4.0,11.0,85,0.00,,,0.00,VWS V14.01,2013-01-28 16:23:00,
2013-01-28 11:28:00,32.0,28.0,30.27,SW,227,5.0,11.0,85,0.00,,,0.00,VWS V14.01,2013-01-28 16:28:00,
2013-01-28 11:33:00,32.1,28.3,30.26,SW,221,10.0,11.0,86,0.00,,,0.00,VWS V14.01,2013-01-28 16:33:00,
2013-01-28 11:38:00,32.1,28.4,30.25,WSW,243,8.0,12.0,86,0.00,,,0.00,VWS V14.01,2013-01-28 16:38:00,
2013-01-28 11:43:00,32.0,28.3,30.24,SW,225,3.0,12.0,86,0.00,,,0.00,VWS V14.01,2013-01-28 16:43:00,
2013-01-28 11:48:00,32.1,28.4,30.24,West,269,2.0,12.0,86,0.00,,,0.00,VWS V14.01,2013-01-28 16:48:00,
2013-01-28 11:53:00,32.2,28.5,30.24,WSW,254,5.0,12.0,86,0.00,,,0.00,VWS V14.01,2013-01-28 16:53:00,
2013-01-28 11:58:00,32.2,28.5,30.24,WSW,249,3.0,12.0,86,0.00,,,0.00,VWS V14.01,2013-01-28 16:58:00,
2013-01-28 12:03:00,32.3,28.6,30.24,WSW,247,4.0,10.0,86,0.00,,,0.00,VWS V14.01,2013-01-28 17:03:00,
2013-01-28 12:08:00,32.3,28.6,30.23,WSW,241,4.0,11.0,86,0.00,,,0.00,VWS V14.01,2013-01-28 17:08:00,
2013-01-28 12:13:00,32.4,28.7,30.22,WSW,251,3.0,11.0,86,0.00,,,0.00,VWS V14.01,2013-01-28 17:13:00,
2013-01-28 12:18:00,32.4,28.7,30.21,SW,230,6.0,11.0,86,0.00,,,0.00,VWS V14.01,2013-01-28 17:18:00,
2013-01-28 12:23:00,32.5,28.8,30.20,WSW,253,6.0,12.0,86,0.00,,,0.00,VWS V14.01,2013-01-28 17:23:00,
2013-01-28 12:28:00,32.5,28.8,30.19,SW,231,5.0,12.0,86,0.00,,,0.00,VWS V14.01,2013-01-28 17:28:00,
2013-01-28 12:33:00,32.6,29.2,30.19,SW,232,9.0,13.0,87,0.01,,,0.01,VWS V14.01,2013-01-28 17:33:00,
2013-01-28 12:38:00,32.7,29.3,30.19,WSW,240,4.0,13.0,87,0.01,,,0.01,VWS V14.01,2013-01-28 17:38:00,
2013-01-28 12:43:00,32.6,29.2,30.17,WSW,249,3.0,13.0,87,0.01,,,0.01,VWS V14.01,2013-01-28 17:43:00,
2013-01-28 12:48:00,32.6,29.2,30.17,SSW,205,2.0,13.0,87,0.02,,,0.02,VWS V14.01,2013-01-28 17:48:00,
2013-01-28 12:53:00,33.1,29.5,30.17,SSW,206,0.0,13.0,88,0.02,,,0.02,VWS V14.01,2013-01-28 17:53:00,
2013-01-28 12:58:00,32.7,29.5,30.16,SW,236,7.0,13.0,88,0.02,,,0.02,VWS V14.01,2013-01-28 17:58:00,
2013-01-28 13:03:00,32.7,29.6,30.17,SW,227,7.0,11.0,88,0.02,,,0.02,VWS V14.01,2013-01-28 18:03:00,
2013-01-28 13:08:00,32.9,29.7,30.16,WSW,242,4.0,11.0,88,0.02,,,0.02,VWS V14.01,2013-01-28 18:08:00,
2013-01-28 13:13:00,32.9,29.7,30.15,WSW,239,8.0,11.0,88,0.03,,,0.03,VWS V14.01,2013-01-28 18:13:00,
2013-01-28 13:18:00,32.9,29.9,30.14,SSW,213,4.0,12.0,89,0.03,,,0.03,VWS V14.01,2013-01-28 18:18:00,
2013-01-28 13:23:00,33.0,30.1,30.13,WSW,250,3.0,12.0,89,0.03,,,0.03,VWS V14.01,2013-01-28 18:23:00,
2013-01-28 13:28:00,33.1,29.9,30.14,WSW,237,2.0,12.0,88,0.03,,,0.03,VWS V14.01,2013-01-28 18:28:00,
2013-01-28 13:33:00,33.0,29.8,30.13,WSW,244,0.0,8.0,88,0.03,,,0.03,VWS V14.01,2013-01-28 18:33:00,
2013-01-28 13:38:00,33.0,30.1,30.12,SW,234,3.0,8.0,89,0.03,,,0.03,VWS V14.01,2013-01-28 18:38:00,
2013-01-28 13:43:00,33.1,29.9,30.11,WSW,243,0.0,8.0,88,0.03,,,0.03,VWS V14.01,2013-01-28 18:43:00,
2013-01-28 13:48:00,33.3,30.2,30.12,WSW,237,2.0,8.0,89,0.03,,,0.03,VWS V14.01,2013-01-28 18:48:00,
2013-01-28 13:53:00,33.2,30.3,30.11,WSW,243,2.0,8.0,89,0.04,,,0.04,VWS V14.01,2013-01-28 18:53:00,
2013-01-28 13:58:00,33.3,30.4,30.11,SSW,208,5.0,8.0,89,0.04,,,0.04,VWS V14.01,2013-01-28 18:58:00,
2013-01-28 14:03:00,33.3,30.4,30.11,SW,222,4.0,8.0,89,0.02,,-RA,0.04,VWS V14.01,2013-01-28 19:03:00,
2013-01-28 14:08:00,33.4,30.5,30.10,SW,214,7.0,9.0,89,0.02,,-RA,0.04,VWS V14.01,2013-01-28 19:08:00,
2013-01-28 14:13:00,33.4,30.6,30.09,SW,230,5.0,10.0,89,0.02,,-RA,0.04,VWS V14.01,2013-01-28 19:13:00,
2013-01-28 14:18:00,33.5,30.5,30.09,SW,225,7.0,10.0,89,0.03,,-RA,0.05,VWS V14.01,2013-01-28 19:18:00,
2013-01-28 14:22:00,33.5,30.6,30.09,SW,224,5.0,12.0,89,0.03,,-RA,0.05,VWS V14.01,2013-01-28 19:22:00,
2013-01-28 14:28:00,33.5,30.6,30.08,SW,215,3.0,12.0,89,0.03,,-RA,0.05,VWS V14.01,2013-01-28 19:28:00,
2013-01-28 14:33:00,33.6,30.7,30.08,WSW,245,6.0,8.0,89,0.03,,-RA,0.06,VWS V14.01,2013-01-28 19:33:00,
2013-01-28 14:37:00,33.5,30.6,30.08,WSW,237,1.0,12.0,89,0.03,,-RA,0.06,VWS V14.01,2013-01-28 19:37:00,
2013-01-28 14:42:00,33.5,30.6,30.07,SW,236,3.0,12.0,89,0.03,,-RA,0.06,VWS V14.01,2013-01-28 19:42:00,
2013-01-28 14:47:00,33.5,30.6,30.08,WSW,239,5.0,12.0,89,0.04,,-RA,0.07,VWS V14.01,2013-01-28 19:47:00,
2013-01-28 14:52:00,33.5,30.6,30.06,SW,224,6.0,12.0,89,0.04,,-RA,0.07,VWS V14.01,2013-01-28 19:52:00,
2013-01-28 14:57:00,33.5,30.7,30.05,SW,234,7.0,12.0,89,0.04,,-RA,0.07,VWS V14.01,2013-01-28 19:57:00,
2013-01-28 15:02:00,33.6,30.8,30.06,West,264,1.0,10.0,89,0.04,,-RA,0.08,VWS V14.01,2013-01-28 20:02:00,
2013-01-28 15:07:00,33.6,30.7,30.06,WSW,240,4.0,11.0,89,0.04,,-RA,0.08,VWS V14.01,2013-01-28 20:07:00,
2013-01-28 15:12:00,33.5,30.6,30.05,SSW,213,5.0,13.0,89,0.05,,-RA,0.09,VWS V14.01,2013-01-28 20:12:00,
2013-01-28 15:17:00,33.5,30.6,30.06,WSW,247,5.0,13.0,89,0.05,,-RA,0.09,VWS V14.01,2013-01-28 20:17:00,
2013-01-28 15:22:00,33.5,30.9,30.05,WSW,243,5.0,13.0,90,0.06,,-RA,0.10,VWS V14.01,2013-01-28 20:22:00,
2013-01-28 15:27:00,33.5,30.9,30.05,WSW,257,7.0,13.0,90,0.07,,-RA,0.11,VWS V14.01,2013-01-28 20:27:00,
2013-01-28 15:32:00,33.4,30.8,30.05,West,260,4.0,10.0,90,0.06,,-RA,0.11,VWS V14.01,2013-01-28 20:32:00,
2013-01-28 15:37:00,33.4,30.8,30.05,WSW,257,0.0,10.0,90,0.08,,-RA,0.13,VWS V14.01,2013-01-28 20:37:00,
2013-01-28 15:42:00,33.5,30.8,30.05,WSW,244,2.0,10.0,90,0.09,,-RA,0.14,VWS V14.01,2013-01-28 20:42:00,
2013-01-28 15:47:00,33.4,30.9,30.05,SW,235,3.0,10.0,90,0.10,,-RA,0.15,VWS V14.01,2013-01-28 20:47:00,
2013-01-28 15:52:00,33.4,30.8,30.05,WSW,252,10.0,10.0,90,0.11,,-RA,0.16,VWS V14.01,2013-01-28 20:52:00,
2013-01-28 15:57:00,33.4,31.1,30.04,WSW,238,4.0,12.0,91,0.11,,-RA,0.16,VWS V14.01,2013-01-28 20:57:00,
2013-01-28 16:02:00,33.4,31.1,30.04,WSW,240,6.0,10.0,91,0.09,,-RA,0.17,VWS V14.01,2013-01-28 21:02:00,
2013-01-28 16:07:00,33.3,31.1,30.03,West,274,3.0,10.0,91,0.09,,-RA,0.17,VWS V14.01,2013-01-28 21:07:00,
2013-01-28 16:12:00,33.3,31.0,30.03,West,266,2.0,10.0,91,0.10,,-RA,0.18,VWS V14.01,2013-01-28 21:12:00,
2013-01-28 16:17:00,33.4,30.9,30.02,SW,220,1.0,10.0,91,0.11,,-RA,0.19,VWS V14.01,2013-01-28 21:17:00,
2013-01-28 16:22:00,33.4,31.2,30.02,West,267,3.0,10.0,91,0.12,,-RA,0.20,VWS V14.01,2013-01-28 21:22:00,
2013-01-28 16:27:00,33.4,31.1,30.02,WSW,252,4.0,10.0,91,0.13,,-RA,0.21,VWS V14.01,2013-01-28 21:27:00,